Time,TemperatureF,DewpointF,PressureIn,WindDirection,WindDirectionDegrees,WindSpeedMPH,WindSpeedGustMPH,Humidity,HourlyPrecipIn,Conditions,Clouds,dailyrainin,SoftwareType,DateUTC
2013-03-02 00:01:00,27.0,22.0,-100.00,SSW,200,-999.0,4.0,76,-99.99,,,-99.99,,2013-03-02 07:01:00,
2013-03-02 00:11:00,30.0,23.0,-100.00,South,184,3.0,5.0,68,-99.99,,,-99.99,,2013-03-02 07:11:00,
2013-03-02 00:21:00,30.0,23.0,-100.00,South,184,3.0,5.0,68,-99.99,,,-99.99,,2013-03-02 07:21:00,
2013-03-02 00:32:00,30.0,23.0,-100.00,South,184,3.0,5.0,68,-99.99,,,-99.99,,2013-03-02 07:32:00,
2013-03-02 00:42:00,30.0,23.0,-100.00,South,184,3.0,5.0,68,-99.99,,,-99.99,,2013-03-02 07:42:00,
2013-03-02 00:51:00,30.0,23.0,-100.00,South,184,3.0,5.0,68,-99.99,,,-99.99,,2013-03-02 07:51:00,
2013-03-02 01:01:00,30.0,23.0,-100.00,South,184,3.0,5.0,68,-99.99,,,-99.99,,2013-03-02 08:01:00,
2013-03-02 01:11:00,29.0,20.0,-100.00,South,181,2.0,4.0,66,-99.99,,,-99.99,,2013-03-02 08:11:00,
2013-03-02 01:21:00,29.0,20.0,-100.00,South,181,2.0,4.0,66,-99.99,,,-99.99,,2013-03-02 08:21:00,
2013-03-02 01:32:00,29.0,20.0,-100.00,South,181,2.0,4.0,66,-99.99,,,-99.99,,2013-03-02 08:32:00,
2013-03-02 01:42:00,29.0,20.0,-100.00,South,181,2.0,4.0,66,-99.99,,,-99.99,,2013-03-02 08:42:00,
2013-03-02 01:52:00,29.0,20.0,-100.00,South,181,2.0,4.0,66,-99.99,,,-99.99,,2013-03-02 08:52:00,
2013-03-02 02:01:00,29.0,20.0,-100.00,South,181,2.0,4.0,66,-99.99,,,-99.99,,2013-03-02 09:01:00,
2013-03-02 02:11:00,28.0,18.0,-100.00,SSE,148,2.0,2.0,68,-99.99,,,-99.99,,2013-03-02 09:11:00,
2013-03-02 02:21:00,28.0,18.0,-100.00,SSE,148,2.0,2.0,68,-99.99,,,-99.99,,2013-03-02 09:21:00,
2013-03-02 02:31:00,28.0,18.0,-100.00,SSE,148,2.0,2.0,68,-99.99,,,-99.99,,2013-03-02 09:31:00,
2013-03-02 02:42:00,28.0,18.0,-100.00,SSE,148,2.0,2.0,68,-99.99,,,-99.99,,2013-03-02 09:42:00,
2013-03-02 02:51:00,28.0,18.0,-100.00,SSE,148,2.0,2.0,68,-99.99,,,-99.99,,2013-03-02 09:51:00,
2013-03-02 03:01:00,28.0,18.0,-100.00,SSE,148,2.0,2.0,68,-99.99,,,-99.99,,2013-03-02 10:01:00,
2013-03-02 03:15:00,29.0,19.0,-100.00,SE,126,2.0,3.0,67,-99.99,,,-99.99,,2013-03-02 10:15:00,
2013-03-02 03:21:00,29.0,19.0,-100.00,SE,126,2.0,3.0,67,-99.99,,,-99.99,,2013-03-02 10:21:00,
2013-03-02 03:31:00,29.0,19.0,-100.00,SE,126,2.0,3.0,67,-99.99,,,-99.99,,2013-03-02 10:31:00,
2013-03-02 03:42:00,29.0,19.0,-100.00,SE,126,2.0,3.0,67,-99.99,,,-99.99,,2013-03-02 10:42:00,
2013-03-02 03:51:00,29.0,19.0,-100.00,SE,126,2.0,3.0,67,-99.99,,,-99.99,,2013-03-02 10:51:00,
2013-03-02 04:01:00,29.0,19.0,-100.00,SE,126,2.0,3.0,67,-99.99,,,-99.99,,2013-03-02 11:01:00,
2013-03-02 04:11:00,31.0,20.0,-100.00,SE,134,4.0,4.0,62,-99.99,,,-99.99,,2013-03-02 11:11:00,
2013-03-02 04:21:00,31.0,20.0,-100.00,SE,134,4.0,4.0,62,-99.99,,,-99.99,,2013-03-02 11:21:00,
2013-03-02 04:32:00,31.0,20.0,-100.00,SE,134,4.0,4.0,62,-99.99,,,-99.99,,2013-03-02 11:32:00,
2013-03-02 04:41:00,31.0,20.0,-100.00,SE,134,4.0,4.0,62,-99.99,,,-99.99,,2013-03-02 11:41:00,
2013-03-02 04:52:00,31.0,20.0,-100.00,SE,134,4.0,4.0,62,-99.99,,,-99.99,,2013-03-02 11:52:00,
2013-03-02 05:02:00,31.0,20.0,-100.00,SE,134,4.0,4.0,62,-99.99,,,-99.99,,2013-03-02 12:02:00,
2013-03-02 05:11:00,29.0,17.0,-100.00,SE,142,2.0,4.0,64,-99.99,,,-99.99,,2013-03-02 12:11:00,
2013-03-02 05:21:00,29.0,17.0,-100.00,SE,142,2.0,4.0,64,-99.99,,,-99.99,,2013-03-02 12:21:00,
2013-03-02 05:32:00,29.0,17.0,-100.00,SE,142,2.0,4.0,64,-99.99,,,-99.99,,2013-03-02 12:32:00,
2013-03-02 05:43:00,29.0,17.0,-100.00,SE,142,2.0,4.0,64,-99.99,,,-99.99,,2013-03-02 12:43:00,
2013-03-02 05:53:00,29.0,17.0,-100.00,SE,142,2.0,4.0,64,-99.99,,,-99.99,,2013-03-02 12:53:00,
2013-03-02 06:01:00,29.0,17.0,-100.00,SE,142,2.0,4.0,64,-99.99,,,-99.99,,2013-03-02 13:01:00,
2013-03-02 06:11:00,27.0,16.0,-100.00,SE,144,1.0,2.0,68,-99.99,,,-99.99,,2013-03-02 13:11:00,
2013-03-02 06:21:00,27.0,16.0,-100.00,SE,144,1.0,2.0,68,-99.99,,,-99.99,,2013-03-02 13:21:00,
2013-03-02 06:31:00,27.0,16.0,-100.00,SE,144,1.0,2.0,68,-99.99,,,-99.99,,2013-03-02 13:31:00,
2013-03-02 06:41:00,27.0,16.0,-100.00,SE,144,1.0,2.0,68,-99.99,,,-99.99,,2013-03-02 13:41:00,
2013-03-02 06:52:00,27.0,16.0,-100.00,SE,144,1.0,2.0,68,-99.99,,,-99.99,,2013-03-02 13:52:00,
2013-03-02 07:01:00,27.0,16.0,-100.00,SE,144,1.0,2.0,68,-99.99,,,-99.99,,2013-03-02 14:01:00,
2013-03-02 07:11:00,26.0,16.0,-100.00,SSE,167,1.0,2.0,69,-99.99,,,-99.99,,2013-03-02 14:11:00,
2013-03-02 07:21:00,26.0,16.0,-100.00,SSE,167,1.0,2.0,69,-99.99,,,-99.99,,2013-03-02 14:21:00,
2013-03-02 07:32:00,26.0,16.0,-100.00,SSE,167,1.0,2.0,69,-99.99,,,-99.99,,2013-03-02 14:32:00,
2013-03-02 07:42:00,26.0,16.0,-100.00,SSE,167,1.0,2.0,69,-99.99,,,-99.99,,2013-03-02 14:42:00,
2013-03-02 07:52:00,26.0,16.0,-100.00,SSE,167,1.0,2.0,69,-99.99,,,-99.99,,2013-03-02 14:52:00,
2013-03-02 08:02:00,26.0,16.0,-100.00,SSE,167,1.0,2.0,69,-99.99,,,-99.99,,2013-03-02 15:02:00,
2013-03-02 08:11:00,30.0,20.0,-100.00,South,177,3.0,5.0,62,-99.99,,,-99.99,,2013-03-02 15:11:00,
2013-03-02 08:21:00,30.0,20.0,-100.00,South,177,3.0,5.0,62,-99.99,,,-99.99,,2013-03-02 15:21:00,
2013-03-02 08:31:00,30.0,20.0,-100.00,South,177,3.0,5.0,62,-99.99,,,-99.99,,2013-03-02 15:31:00,
2013-03-02 08:41:00,30.0,20.0,-100.00,South,177,3.0,5.0,62,-99.99,,,-99.99,,2013-03-02 15:41:00,
2013-03-02 08:52:00,30.0,20.0,-100.00,South,177,3.0,5.0,62,-99.99,,,-99.99,,2013-03-02 15:52:00,
2013-03-02 09:01:00,30.0,20.0,-100.00,South,177,3.0,5.0,62,-99.99,,,-99.99,,2013-03-02 16:01:00,
2013-03-02 09:11:00,33.0,21.0,-100.00,South,179,3.0,5.0,60,-99.99,,,-99.99,,2013-03-02 16:11:00,
2013-03-02 09:21:00,33.0,21.0,-100.00,South,179,3.0,5.0,60,-99.99,,,-99.99,,2013-03-02 16:21:00,
2013-03-02 09:31:00,33.0,21.0,-100.00,South,179,3.0,5.0,60,-99.99,,,-99.99,,2013-03-02 16:31:00,
2013-03-02 09:41:00,33.0,21.0,-100.00,South,179,3.0,5.0,60,-99.99,,,-99.99,,2013-03-02 16:41:00,
2013-03-02 09:51:00,33.0,21.0,-100.00,South,179,3.0,5.0,60,-99.99,,,-99.99,,2013-03-02 16:51:00,
2013-03-02 10:01:00,33.0,21.0,-100.00,South,179,3.0,5.0,60,-99.99,,,-99.99,,2013-03-02 17:01:00,
2013-03-02 10:11:00,37.0,24.0,-100.00,SSE,157,5.0,6.0,61,-99.99,,,-99.99,,2013-03-02 17:11:00,
2013-03-02 10:21:00,37.0,24.0,-100.00,SSE,157,5.0,6.0,61,-99.99,,,-99.99,,2013-03-02 17:21:00,
2013-03-02 10:32:00,37.0,24.0,-100.00,SSE,157,5.0,6.0,61,-99.99,,,-99.99,,2013-03-02 17:32:00,
2013-03-02 10:42:00,37.0,24.0,-100.00,SSE,157,5.0,6.0,61,-99.99,,,-99.99,,2013-03-02 17:42:00,
2013-03-02 10:52:00,37.0,24.0,-100.00,SSE,157,5.0,6.0,61,-99.99,,,-99.99,,2013-03-02 17:52:00,
2013-03-02 11:01:00,37.0,24.0,-100.00,SSE,157,5.0,6.0,61,-99.99,,,-99.99,,2013-03-02 18:01:00,
2013-03-02 11:11:00,40.0,28.0,-100.00,SE,133,-999.0,7.0,59,-99.99,,,-99.99,,2013-03-02 18:11:00,
2013-03-02 11:22:00,40.0,28.0,-100.00,SE,133,-999.0,7.0,59,-99.99,,,-99.99,,2013-03-02 18:22:00,
2013-03-02 11:32:00,40.0,28.0,-100.00,SE,133,-999.0,7.0,59,-99.99,,,-99.99,,2013-03-02 18:32:00,
2013-03-02 11:42:00,40.0,28.0,-100.00,SE,133,-999.0,7.0,59,-99.99,,,-99.99,,2013-03-02 18:42:00,
2013-03-02 11:51:00,40.0,28.0,-100.00,SE,133,-999.0,7.0,59,-99.99,,,-99.99,,2013-03-02 18:51:00,
2013-03-02 12:01:00,40.0,28.0,-100.00,SE,133,-999.0,7.0,59,-99.99,,,-99.99,,2013-03-02 19:01:00,
2013-03-02 12:11:00,42.0,28.0,-100.00,SE,133,6.0,7.0,57,-99.99,,,-99.99,,2013-03-02 19:11:00,
2013-03-02 12:21:00,42.0,28.0,-100.00,SE,133,6.0,7.0,57,-99.99,,,-99.99,,2013-03-02 19:21:00,
2013-03-02 12:31:00,42.0,28.0,-100.00,SE,133,6.0,7.0,57,-99.99,,,-99.99,,2013-03-02 19:31:00,
2013-03-02 12:42:00,42.0,28.0,-100.00,SE,133,6.0,7.0,57,-99.99,,,-99.99,,2013-03-02 19:42:00,
2013-03-02 12:52:00,42.0,28.0,-100.00,SE,133,6.0,7.0,57,-99.99,,,-99.99,,2013-03-02 19:52:00,
2013-03-02 13:01:00,42.0,28.0,-100.00,SE,133,6.0,7.0,57,-99.99,,,-99.99,,2013-03-02 20:01:00,
2013-03-02 13:11:00,44.0,29.0,-100.00,ESE,120,-999.0,6.0,53,-99.99,,,-99.99,,2013-03-02 20:11:00,
2013-03-02 13:21:00,44.0,29.0,-100.00,ESE,120,-999.0,6.0,53,-99.99,,,-99.99,,2013-03-02 20:21:00,
2013-03-02 13:32:00,44.0,29.0,-100.00,ESE,120,-999.0,6.0,53,-99.99,,,-99.99,,2013-03-02 20:32:00,
2013-03-02 13:42:00,44.0,29.0,-100.00,ESE,120,-999.0,6.0,53,-99.99,,,-99.99,,2013-03-02 20:42:00,
2013-03-02 13:52:00,44.0,29.0,-100.00,ESE,120,-999.0,6.0,53,-99.99,,,-99.99,,2013-03-02 20:52:00,
2013-03-02 14:02:00,44.0,29.0,-100.00,ESE,120,-999.0,6.0,53,-99.99,,,-99.99,,2013-03-02 21:02:00,
2013-03-02 14:11:00,45.0,29.0,-100.00,ESE,117,6.0,7.0,50,-99.99,,,-99.99,,2013-03-02 21:11:00,
2013-03-02 14:22:00,45.0,29.0,-100.00,ESE,117,6.0,7.0,50,-99.99,,,-99.99,,2013-03-02 21:22:00,
2013-03-02 14:32:00,45.0,29.0,-100.00,ESE,117,6.0,7.0,50,-99.99,,,-99.99,,2013-03-02 21:32:00,
2013-03-02 14:42:00,45.0,29.0,-100.00,ESE,117,6.0,7.0,50,-99.99,,,-99.99,,2013-03-02 21:42:00,
2013-03-02 14:52:00,45.0,29.0,-100.00,ESE,117,6.0,7.0,50,-99.99,,,-99.99,,2013-03-02 21:52:00,
2013-03-02 15:01:00,45.0,29.0,-100.00,ESE,117,6.0,7.0,50,-99.99,,,-99.99,,2013-03-02 22:01:00,
2013-03-02 15:11:00,44.0,27.0,-100.00,ESE,114,7.0,8.0,54,-99.99,,,-99.99,,2013-03-02 22:11:00,
2013-03-02 15:21:00,44.0,27.0,-100.00,ESE,114,7.0,8.0,54,-99.99,,,-99.99,,2013-03-02 22:21:00,
2013-03-02 15:32:00,44.0,27.0,-100.00,ESE,114,7.0,8.0,54,-99.99,,,-99.99,,2013-03-02 22:32:00,
2013-03-02 15:42:00,44.0,27.0,-100.00,ESE,114,7.0,8.0,54,-99.99,,,-99.99,,2013-03-02 22:42:00,
2013-03-02 15:51:00,44.0,27.0,-100.00,ESE,114,7.0,8.0,54,-99.99,,,-99.99,,2013-03-02 22:51:00,
2013-03-02 16:01:00,44.0,27.0,-100.00,ESE,114,7.0,8.0,54,-99.99,,,-99.99,,2013-03-02 23:01:00,
2013-03-02 16:11:00,44.0,28.0,-100.00,ESE,117,6.0,7.0,55,-99.99,,,-99.99,,2013-03-02 23:11:00,
2013-03-02 16:21:00,44.0,28.0,-100.00,ESE,117,6.0,7.0,55,-99.99,,,-99.99,,2013-03-02 23:21:00,
2013-03-02 16:32:00,44.0,28.0,-100.00,ESE,117,6.0,7.0,55,-99.99,,,-99.99,,2013-03-02 23:32:00,
2013-03-02 16:42:00,44.0,28.0,-100.00,ESE,117,6.0,7.0,55,-99.99,,,-99.99,,2013-03-02 23:42:00,
2013-03-02 16:52:00,44.0,28.0,-100.00,ESE,117,6.0,7.0,55,-99.99,,,-99.99,,2013-03-02 23:52:00,
2013-03-02 17:02:00,44.0,28.0,-100.00,ESE,117,6.0,7.0,55,-99.99,,,-99.99,,2013-03-03 00:02:00,
2013-03-02 17:11:00,43.0,27.0,-100.00,ESE,116,5.0,6.0,57,-99.99,,,-99.99,,2013-03-03 00:11:00,
2013-03-02 17:22:00,43.0,27.0,-100.00,ESE,116,5.0,6.0,57,-99.99,,,-99.99,,2013-03-03 00:22:00,
2013-03-02 17:32:00,43.0,27.0,-100.00,ESE,116,5.0,6.0,57,-99.99,,,-99.99,,2013-03-03 00:32:00,
2013-03-02 17:42:00,43.0,27.0,-100.00,ESE,116,5.0,6.0,57,-99.99,,,-99.99,,2013-03-03 00:42:00,
2013-03-02 17:52:00,43.0,27.0,-100.00,ESE,116,5.0,6.0,57,-99.99,,,-99.99,,2013-03-03 00:52:00,
2013-03-02 18:01:00,43.0,27.0,-100.00,ESE,116,5.0,6.0,57,-99.99,,,-99.99,,2013-03-03 01:01:00,
2013-03-02 18:11:00,40.0,25.0,-100.00,ESE,109,3.0,6.0,60,-99.99,,,-99.99,,2013-03-03 01:11:00,
2013-03-02 18:21:00,40.0,25.0,-100.00,ESE,109,3.0,6.0,60,-99.99,,,-99.99,,2013-03-03 01:21:00,
2013-03-02 18:31:00,40.0,25.0,-100.00,ESE,109,3.0,6.0,60,-99.99,,,-99.99,,2013-03-03 01:31:00,
2013-03-02 18:41:00,40.0,25.0,-100.00,ESE,109,3.0,6.0,60,-99.99,,,-99.99,,2013-03-03 01:41:00,
2013-03-02 18:52:00,40.0,25.0,-100.00,ESE,109,3.0,6.0,60,-99.99,,,-99.99,,2013-03-03 01:52:00,
2013-03-02 19:01:00,40.0,25.0,-100.00,ESE,109,3.0,6.0,60,-99.99,,,-99.99,,2013-03-03 02:01:00,
2013-03-02 19:11:00,38.0,25.0,-100.00,ENE,64,2.0,5.0,63,-99.99,,,-99.99,,2013-03-03 02:11:00,
2013-03-02 19:21:00,38.0,25.0,-100.00,ENE,64,2.0,5.0,63,-99.99,,,-99.99,,2013-03-03 02:21:00,
2013-03-02 19:31:00,38.0,25.0,-100.00,ENE,64,2.0,5.0,63,-99.99,,,-99.99,,2013-03-03 02:31:00,
2013-03-02 19:41:00,38.0,25.0,-100.00,ENE,64,2.0,5.0,63,-99.99,,,-99.99,,2013-03-03 02:41:00,
2013-03-02 19:52:00,38.0,25.0,-100.00,ENE,64,2.0,5.0,63,-99.99,,,-99.99,,2013-03-03 02:52:00,
2013-03-02 20:01:00,38.0,25.0,-100.00,ENE,64,2.0,5.0,63,-99.99,,,-99.99,,2013-03-03 03:01:00,
2013-03-02 20:11:00,38.0,26.0,-100.00,North,10,1.0,2.0,63,-99.99,,,-99.99,,2013-03-03 03:11:00,
2013-03-02 20:21:00,38.0,26.0,-100.00,North,10,1.0,2.0,63,-99.99,,,-99.99,,2013-03-03 03:21:00,
2013-03-02 20:31:00,38.0,26.0,-100.00,North,10,1.0,2.0,63,-99.99,,,-99.99,,2013-03-03 03:31:00,
2013-03-02 20:41:00,38.0,26.0,-100.00,North,10,1.0,2.0,63,-99.99,,,-99.99,,2013-03-03 03:41:00,
2013-03-02 20:51:00,38.0,26.0,-100.00,North,10,1.0,2.0,63,-99.99,,,-99.99,,2013-03-03 03:51:00,
2013-03-02 21:01:00,38.0,26.0,-100.00,North,10,1.0,2.0,63,-99.99,,,-99.99,,2013-03-03 04:01:00,
2013-03-02 21:11:00,37.0,25.0,-100.00,SSW,193,2.0,4.0,65,-99.99,,,-99.99,,2013-03-03 04:11:00,
2013-03-02 21:21:00,37.0,25.0,-100.00,SSW,193,2.0,4.0,65,-99.99,,,-99.99,,2013-03-03 04:21:00,
2013-03-02 21:31:00,37.0,25.0,-100.00,SSW,193,2.0,4.0,65,-99.99,,,-99.99,,2013-03-03 04:31:00,
2013-03-02 21:41:00,37.0,25.0,-100.00,SSW,193,2.0,4.0,65,-99.99,,,-99.99,,2013-03-03 04:41:00,
2013-03-02 21:51:00,37.0,25.0,-100.00,SSW,193,2.0,4.0,65,-99.99,,,-99.99,,2013-03-03 04:51:00,
2013-03-02 22:01:00,37.0,25.0,-100.00,SSW,193,2.0,4.0,65,-99.99,,,-99.99,,2013-03-03 05:01:00,
2013-03-02 22:11:00,36.0,25.0,-100.00,SE,145,6.0,9.0,70,-99.99,,,-99.99,,2013-03-03 05:11:00,
2013-03-02 22:22:00,36.0,25.0,-100.00,SE,145,6.0,9.0,70,-99.99,,,-99.99,,2013-03-03 05:22:00,
2013-03-02 22:32:00,36.0,25.0,-100.00,SE,145,6.0,9.0,70,-99.99,,,-99.99,,2013-03-03 05:32:00,
2013-03-02 22:42:00,36.0,25.0,-100.00,SE,145,6.0,9.0,70,-99.99,,,-99.99,,2013-03-03 05:42:00,
2013-03-02 22:52:00,36.0,25.0,-100.00,SE,145,6.0,9.0,70,-99.99,,,-99.99,,2013-03-03 05:52:00,
2013-03-02 23:01:00,36.0,25.0,-100.00,SE,145,6.0,9.0,70,-99.99,,,-99.99,,2013-03-03 06:01:00,
2013-03-02 23:11:00,37.0,27.0,-100.00,SSE,161,-999.0,9.0,69,-99.99,,,-99.99,,2013-03-03 06:11:00,
2013-03-02 23:21:00,37.0,27.0,-100.00,SSE,161,-999.0,9.0,69,-99.99,,,-99.99,,2013-03-03 06:21:00,
2013-03-02 23:31:00,37.0,27.0,-100.00,SSE,161,-999.0,9.0,69,-99.99,,,-99.99,,2013-03-03 06:31:00,
2013-03-02 23:42:00,37.0,27.0,-100.00,SSE,161,-999.0,9.0,69,-99.99,,,-99.99,,2013-03-03 06:42:00,
2013-03-02 23:52:00,37.0,27.0,-100.00,SSE,161,-999.0,9.0,69,-99.99,,,-99.99,,2013-03-03 06:52:00,